TimeCST,TemperatureF,Dew PointF,Humidity,Sea Level PressureIn,VisibilityMPH,Wind Direction,Wind SpeedMPH,Gust SpeedMPH,PrecipitationIn,Events,Conditions,WindDirDegrees,DateUTC
12:55 AM,42.1,35.1,76,29.70,10.0,South,16.1,-,N/A,,Clear,190,2011-11-12 06:55:00
1:55 AM,41.0,35.1,79,29.67,10.0,South,9.2,-,N/A,,Clear,190,2011-11-12 07:55:00
2:55 AM,42.1,35.1,76,29.65,10.0,South,16.1,-,N/A,,Clear,190,2011-11-12 08:55:00
3:55 AM,39.2,35.6,87,29.62,10.0,South,6.9,-,N/A,,Clear,180,2011-11-12 09:55:00
4:55 AM,39.0,35.1,86,29.59,10.0,SE,5.8,-,N/A,,Clear,130,2011-11-12 10:55:00
5:55 AM,37.9,35.1,89,29.58,10.0,East,5.8,-,N/A,,Clear,100,2011-11-12 11:55:00
7:55 AM,37.0,35.1,93,29.55,9.0,ENE,3.5,-,N/A,,Clear,70,2011-11-12 13:55:00
8:55 AM,39.9,37.0,89,29.53,10.0,Variable,5.8,-,N/A,,Clear,0,2011-11-12 14:55:00
9:55 AM,45.0,36.0,71,29.51,10.0,South,15.0,-,N/A,,Clear,170,2011-11-12 15:55:00
10:55 AM,53.1,37.0,55,29.50,10.0,South,17.3,23.0,N/A,,Clear,190,2011-11-12 16:55:00
11:55 AM,55.0,36.0,49,29.50,10.0,SSW,12.7,20.7,N/A,,Clear,210,2011-11-12 17:55:00
12:55 PM,57.2,35.6,44,29.44,10.0,South,10.4,-,N/A,,Clear,190,2011-11-12 18:55:00
1:55 PM,57.9,35.1,42,29.45,10.0,SSW,15.0,-,N/A,,Clear,210,2011-11-12 19:55:00
2:55 PM,59.0,35.1,41,29.45,10.0,SW,13.8,-,N/A,,Clear,230,2011-11-12 20:55:00
3:55 PM,57.9,36.0,44,29.45,10.0,WSW,10.4,-,N/A,,Clear,240,2011-11-12 21:55:00
4:55 PM,55.9,36.0,47,29.47,10.0,WSW,9.2,-,N/A,,Clear,240,2011-11-12 22:55:00
5:55 PM,50.0,37.0,61,29.47,10.0,SW,5.8,-,N/A,,Clear,220,2011-11-12 23:55:00
6:55 PM,50.0,36.0,59,29.48,10.0,SSW,9.2,-,N/A,,Clear,200,2011-11-13 00:55:00
7:55 PM,51.8,35.6,54,29.46,10.0,South,15.0,-,N/A,,Clear,190,2011-11-13 01:55:00
8:55 PM,51.1,34.0,52,29.44,10.0,South,15.0,-,N/A,,Clear,190,2011-11-13 02:55:00
9:55 PM,54.0,33.1,45,29.39,10.0,South,24.2,29.9,N/A,,Clear,180,2011-11-13 03:55:00
10:55 PM,53.1,34.0,48,29.34,10.0,South,19.6,26.5,N/A,,Clear,180,2011-11-13 04:55:00
11:55 PM,52.0,39.9,63,29.30,10.0,South,26.5,35.7,N/A,,Clear,190,2011-11-13 05:55:00